This is the latest recevied weather packets stored in our database for station/object N3TJJ-2. If no packets are shown the sender has not sent any weather packets the latest 10 day(s).
| Time | Temp. | Humidity | Pressure | Rain* | Wind** | Luminosity | Snow |
|---|---|---|---|---|---|---|---|
| 1777986734 | 19.44° C | 62% | 1012.8 hPa | 0 mm | - | - | - |
| 1777986676 | 19.44° C | 62% | 1012.8 hPa | 0 mm | - | - | - |
| 1777986317 | 18.89° C | 63% | 1012.9 hPa | 0 mm | - | - | - |
| 1777985956 | 18.89° C | 65% | 1012.8 hPa | 0 mm | - | - | - |
| 1777985605 | 18.33° C | 65% | 1012.8 hPa | 0 mm | - | - | - |
| 1777985240 | 18.33° C | 66% | 1012.9 hPa | 0 mm | - | - | - |
| 1777984876 | 17.78° C | 67% | 1012.8 hPa | 0 mm | - | - | - |
| 1777984584 | 17.78° C | 67% | 1012.8 hPa | 0 mm | - | - | - |
| 1777984155 | 17.78° C | 67% | 1012.8 hPa | 0 mm | - | - | - |
| 1777983799 | 17.22° C | 68% | 1012.8 hPa | 0 mm | - | - | - |
| 1777983436 | 17.22° C | 69% | 1012.8 hPa | 0 mm | - | - | - |
| 1777983075 | 17.22° C | 69% | 1012.7 hPa | 0 mm | - | - | - |
| 1777982727 | 17.22° C | 69% | 1012.7 hPa | 0 mm | - | - | - |
| 1777982355 | 17.22° C | 69% | 1012.5 hPa | 0 mm | - | - | - |
| 1777982000 | 16.67° C | 71% | 1012.4 hPa | 0 mm | - | - | - |
| 1777981693 | 16.67° C | 71% | 1012.3 hPa | 0 mm | - | - | - |
| 1777981278 | 16.67° C | 72% | 1012.2 hPa | 0 mm | - | - | - |
| 1777980916 | 16.11° C | 73% | 1012.2 hPa | 0 mm | - | - | - |
| 1777980555 | 16.11° C | 74% | 1012.3 hPa | 0 mm | - | - | - |
| 1777980199 | 15.56° C | 75% | 1012.2 hPa | 0 mm | - | - | - |
| 1777979854 | 15.56° C | 75% | 1012.1 hPa | 0 mm | - | - | - |
| 1777979476 | 15° C | 75% | 1012.1 hPa | 0 mm | - | - | - |
| 1777979115 | 15° C | 75% | 1012 hPa | 0 mm | - | - | - |
| 1777978759 | 14.44° C | 76% | 1011.9 hPa | 0 mm | - | - | - |
| 1777978052 | 13.89° C | 77% | 1011.8 hPa | 0 mm | - | - | - |
* Rain latest hour (hover to see other rain measurements)
** Current wind speed in m/s (hover to see current wind gust speed)